Location: Lake Runnemede Observatory
(43.4843°N, 72.3851°W)
Time: 01:16:56
(UTC-04:00)

Amateur Radio Satellites - All Passes

Search period start: 29 March 2017 00:46
Search period end: 30 March 2017 00:46
Location: Lake Runnemede Observatory, 43.4843°N, 72.3851°W

Satellite Date Start Highest point End Downlink Frequencies (MHz)
Time Altitude Azimuth
BUGSAT 1 29 Mar 00:48:31 00:52:01 26° 95° (E) 00:55:29 437.445
DX 1 29 Mar 01:02:14 01:06:33 68° 259° (WSW) 01:10:55 434.975-435.025
O/OREOS (USA 219) 29 Mar 01:04:50 01:07:42 16° 51° (NE) 01:10:33 437.305
Oscar 19 29 Mar 01:06:28 01:09:19 15° 90° (E) 01:12:10 437.125/150
AIST 2D 29 Mar 01:16:07 01:18:29 17° 293° (WNW) 01:20:50 435.315
ITUPSAT 1 29 Mar 01:25:45 01:28:12 14° 59° (ENE) 01:30:38 437.325
50 SAT 29 Mar 01:28:02 01:30:23 17° 266° (W) 01:32:44 437.505
NANOSAT C BR1 29 Mar 01:30:17 01:34:04 32° 291° (WNW) 01:37:49 145.865
VELOX 1 29 Mar 01:36:20 01:38:40 14° 270° (W) 01:41:01 145.980
EO-79 29 Mar 01:36:45 01:40:18 26° 293° (WNW) 01:43:49 145.935-145.965
UKube-1 29 Mar 01:37:21 01:41:24 40° 261° (W) 01:45:29 .
Gurwin Techsat 1B 29 Mar 01:41:08 01:44:47 18° 91° (E) 01:48:24 435.225
Tancredo 1 29 Mar 01:48:46 01:51:57 64° 30° (NNE) 01:55:07 437.200
ISS 29 Mar 02:00:40 02:03:58 72° 31° (NNE) 02:07:15 437.550
POLYITAN 1 29 Mar 02:06:50 02:09:01 14° 298° (WNW) 02:11:12 437.675
QB50P2 29 Mar 02:12:10 02:13:42 12° 299° (WNW) 02:15:13 145.880/145.840
DUCHIFAT 1 29 Mar 02:20:00 02:21:45 12° 299° (WNW) 02:23:27 145.980
BUGSAT 1 29 Mar 02:23:47 02:27:20 28° 292° (WNW) 02:30:50 437.445
MOZHAYETS 4 29 Mar 02:36:53 02:40:42 27° 67° (ENE) 02:44:32
BEESAT 29 Mar 02:42:33 02:47:19 74° 74° (ENE) 02:52:06 436.000
O/OREOS (USA 219) 29 Mar 02:43:00 02:47:36 67° 250° (WSW) 02:52:09 437.305
Oscar 19 29 Mar 02:43:59 02:49:09 71° 287° (WNW) 02:54:18 437.125/150
AO-7 29 Mar 02:55:10 03:00:11 17° 89° (E) 03:05:11 .
ITAMSAT 1 29 Mar 02:59:03 03:02:07 16° 90° (E) 03:05:10 435.822/435.867
ITUPSAT 1 29 Mar 03:00:37 03:05:24 76° 256° (WSW) 03:10:13 437.325
Gurwin Techsat 1B 29 Mar 03:19:52 03:25:07 60° 288° (WNW) 03:30:20 435.225
Tancredo 1 29 Mar 03:25:37 03:27:45 17° 226° (SW) 03:29:53 437.200
KKS-1 29 Mar 03:35:24 03:39:00 25° 66° (ENE) 03:42:38 437.445
CUBESAT XI-V 29 Mar 03:36:56 03:40:12 20° 64° (ENE) 03:43:29 437.345
ISS 29 Mar 03:38:03 03:40:05 15° 227° (SW) 03:42:07 437.550
STARS 29 Mar 04:04:06 04:07:30 22° 65° (ENE) 04:10:55 437.465
AO-85 29 Mar 04:12:16 04:15:28 23° 45° (NE) 04:18:41 145.980
MOZHAYETS 4 29 Mar 04:13:37 04:17:45 33° 264° (W) 04:21:53
BEESAT 29 Mar 04:23:37 04:25:36 12° 271° (W) 04:27:37 436.000
Oscar 19 29 Mar 04:26:36 04:27:32 10° 305° (NW) 04:28:29 437.125/150
ITAMSAT 1 29 Mar 04:36:54 04:42:05 68° 288° (WNW) 04:47:12 435.822/435.867
AO-7 29 Mar 04:45:46 04:54:07 83° 108° (ESE) 05:02:25 .
BEESAT 3 29 Mar 04:55:40 04:56:37 11° 34° (NNE) 04:57:33 437.485
M-CUBED/EXP-1 PRIME 29 Mar 05:05:06 05:07:48 18° 58° (ENE) 05:10:39 437.505
KKS-1 29 Mar 05:11:18 05:15:23 35° 263° (W) 05:19:30 437.445
CUBESAT XI-V 29 Mar 05:12:50 05:17:14 46° 261° (W) 05:21:41 437.345
STRAND 1 29 Mar 05:38:19 05:39:40 11° 56° (NE) 05:41:02 437.568
STARS 29 Mar 05:39:28 05:43:36 38° 262° (W) 05:47:47 437.465
AO-85 29 Mar 05:52:17 05:55:56 37° 242° (WSW) 05:59:41 145.980
XW-2F 29 Mar 06:02:19 06:04:10 13° 91° (E) 06:06:02 145.980 - 146.000
LilacSat-2 29 Mar 06:08:17 06:10:50 17° 93° (E) 06:13:23 437.200
DOVE 4 29 Mar 06:13:56 06:18:48 35° 95° (E) 06:23:31 437.250
NUDT-PHONESAT 29 Mar 06:18:46 06:21:15 17° 93° (E) 06:23:43 437.300
ITAMSAT 1 29 Mar 06:20:21 06:20:33 10° 306° (NW) 06:20:46 435.822/435.867
NO-84 29 Mar 06:25:06 06:27:59 70° 139° (SE) 06:30:49 435.350 FM
XW-2D 29 Mar 06:28:55 06:32:14 29° 96° (E) 06:35:32 145.860 - 145.880
KAITUO 1B 29 Mar 06:29:19 06:32:18 23° 95° (E) 06:35:17 145.475/437.950
BEESAT 3 29 Mar 06:31:02 06:35:03 62° 54° (NE) 06:39:00 437.485
XW-2B 29 Mar 06:34:51 06:38:17 33° 97° (E) 06:41:41 145.730 - 145.750
M-CUBED/EXP-1 PRIME 29 Mar 06:38:19 06:41:54 41° 257° (WSW) 06:45:47 437.505
AO-7 29 Mar 06:39:37 06:45:59 26° 308° (NW) 06:52:21 .
YUBILEINY 29 Mar 06:43:35 06:51:07 34° 84° (E) 06:58:39 435.215
XW-2C 29 Mar 06:45:02 06:48:39 45° 99° (E) 06:52:15 145.795 - 145.815
CUTE-I 29 Mar 06:46:51 06:51:56 43° 98° (E) 06:56:59 437.470
BEESAT 2 29 Mar 06:53:06 06:57:00 43° 51° (NE) 07:00:52 435.950
STRAND 1 29 Mar 07:12:49 07:17:57 75° 74° (ENE) 07:23:06 437.568
XW-2A 29 Mar 07:19:07 07:20:56 14° 92° (E) 07:22:45 145.665 - 145.685
XW-2F 29 Mar 07:35:00 07:38:33 43° 288° (WNW) 07:42:05 145.980 - 146.000
HO-68 29 Mar 07:36:02 07:42:17 31° 95° (E) 07:48:29 435.675
LilacSat-2 29 Mar 07:41:48 07:45:14 33° 289° (WNW) 07:48:37 437.200
DOVE 4 29 Mar 07:51:41 07:56:22 32° 293° (WNW) 08:00:58 437.250
NUDT-PHONESAT 29 Mar 07:51:57 07:55:16 32° 289° (WNW) 07:58:32 437.300
SEEDS 29 Mar 07:54:22 07:57:44 23° 94° (E) 08:01:04 437.485
KAITUO 1B 29 Mar 08:03:15 08:06:17 24° 291° (WNW) 08:09:17 145.475/437.950
XW-2D 29 Mar 08:03:29 08:06:16 20° 293° (WNW) 08:09:02 145.860 - 145.880
NO-84 29 Mar 08:03:50 08:05:47 17° 338° (NNW) 08:07:45 435.350 FM
CUTE 1.7 + AOD 2 29 Mar 08:06:21 08:10:26 47° 99° (E) 08:14:30 437.475
XW-2B 29 Mar 08:09:40 08:12:14 18° 294° (WNW) 08:14:49 145.730 - 145.750
BEESAT 3 29 Mar 08:10:14 08:12:08 13° 251° (WSW) 08:14:02 437.485
CUBEBUG 2 29 Mar 08:19:34 08:23:26 30° 95° (E) 08:27:09 437.445
XW-2C 29 Mar 08:20:31 08:22:28 14° 296° (WNW) 08:24:26 145.795 - 145.815
CUTE-I 29 Mar 08:27:19 08:31:45 27° 296° (WNW) 08:36:10 437.470
BEESAT 2 29 Mar 08:31:34 08:34:28 19° 248° (WSW) 08:37:23 435.950
YUBILEINY 29 Mar 08:38:59 08:47:30 55° 284° (WNW) 08:56:03 435.215
AO-73 29 Mar 08:41:16 08:43:54 16° 91° (E) 08:46:30 145.935
FO-29 29 Mar 08:47:17 08:52:31 21° 58° (ENE) 08:57:29 435.910
XW-2A 29 Mar 08:50:46 08:53:50 32° 289° (WNW) 08:56:52 145.665 - 145.685
STRAND 1 29 Mar 08:55:06 08:57:41 14° 271° (W) 09:00:16 437.568
AAUSAT CUBESAT 2 29 Mar 09:04:48 09:08:57 68° 101° (ESE) 09:13:05 437.432
PCSat 29 Mar 09:05:46 09:10:59 52° 115° (ESE) 09:16:16 145.827
TIGRISAT 29 Mar 09:14:45 09:18:40 27° 67° (ENE) 09:22:32 435.000
UWE-3 29 Mar 09:15:38 09:19:57 76° 102° (ESE) 09:24:07 435.000/436.395/437.385
PRISM 29 Mar 09:17:53 09:21:51 55° 73° (ENE) 09:25:53 437.425
HO-68 29 Mar 09:23:20 09:30:15 54° 293° (WNW) 09:37:10 435.675
UNISAT 6 29 Mar 09:25:26 09:29:42 36° 70° (ENE) 09:33:56 437.425
SEEDS 29 Mar 09:29:43 09:33:27 32° 291° (WNW) 09:37:10 437.485
Oscar 11 29 Mar 09:36:28 09:40:44 57° 101° (E) 09:44:58 .
CUTE 1.7 + AOD 2 29 Mar 09:43:11 09:45:54 17° 296° (WNW) 09:48:37 437.475
ZACube-1 29 Mar 09:49:36 09:53:51 79° 283° (WNW) 09:57:59 437.345
CUBEBUG 2 29 Mar 09:56:18 09:59:57 26° 293° (WNW) 10:03:28 437.445
DELFI C3 29 Mar 09:57:40 10:01:09 28° 96° (E) 10:04:38 145.870
AO-73 29 Mar 10:16:23 10:20:24 43° 288° (WNW) 10:24:19 145.935
AIST 2D 29 Mar 10:19:00 10:20:55 14° 66° (ENE) 10:22:51 435.315
FO-29 29 Mar 10:28:56 10:36:45 89° 75° (ENE) 10:43:59 435.910
AAUSAT CUBESAT 2 29 Mar 10:42:15 10:43:52 12° 298° (WNW) 10:45:28 437.432
YUBILEINY 29 Mar 10:44:16 10:46:40 11° 309° (NW) 10:49:06 435.215
NANOSAT C BR1 29 Mar 10:48:15 10:51:25 21° 65° (ENE) 10:54:36 145.865
PCSat 29 Mar 10:50:02 10:54:39 28° 314° (NW) 10:59:19 145.827
TIGRISAT 29 Mar 10:50:57 10:55:12 34° 263° (W) 10:59:27 435.000
EO-79 29 Mar 10:54:23 10:57:55 26° 67° (ENE) 11:01:27 145.935-145.965
UWE-3 29 Mar 10:54:24 10:55:44 11° 300° (WNW) 10:57:05 435.000/436.395/437.385
PRISM 29 Mar 10:55:41 10:57:29 13° 269° (W) 10:59:18 437.425
RS-15 29 Mar 10:55:48 11:04:48 26° 100° (E) 11:13:57 29.354- 29.394
UNISAT 6 29 Mar 11:02:37 11:06:27 25° 266° (W) 11:10:17 437.425
Oscar 11 29 Mar 11:13:59 11:16:24 15° 297° (WNW) 11:18:49 .
HO-68 29 Mar 11:14:13 11:16:25 12° 314° (NW) 11:18:37 435.675
NO-84 29 Mar 11:20:56 11:22:56 16° 22° (NNE) 11:25:01 435.350 FM
POLYITAN 1 29 Mar 11:22:45 11:26:54 51° 73° (ENE) 11:31:04 437.675
QB50P2 29 Mar 11:27:28 11:31:41 62° 74° (ENE) 11:35:56 145.880/145.840
DELFI C3 29 Mar 11:32:38 11:35:49 23° 292° (WNW) 11:39:00 145.870
DUCHIFAT 1 29 Mar 11:34:50 11:39:00 57° 73° (ENE) 11:43:11 145.980
BUGSAT 1 29 Mar 11:39:15 11:42:34 23° 66° (ENE) 11:45:55 437.445
AIST 2D 29 Mar 11:50:31 11:53:50 38° 262° (W) 11:57:09 435.315
SPROUT 29 Mar 12:08:27 12:10:47 14° 90° (E) 12:13:08 437.525
LO-87 29 Mar 12:10:03 12:13:42 63° 284° (WNW) 12:17:16 145.935 - 145.965
FO-29 29 Mar 12:17:17 12:22:25 19° 271° (W) 12:27:21 435.910
NANOSAT C BR1 29 Mar 12:22:54 12:26:53 38° 262° (W) 12:30:53 145.865
ESTCUBE 1 29 Mar 12:23:41 12:28:13 79° 103° (ESE) 12:32:43 437.505/2401.250
Oscar 19 29 Mar 12:23:59 12:28:06 25° 64° (ENE) 12:32:15 437.125/150
EO-79 29 Mar 12:29:48 12:33:34 30° 264° (W) 12:37:22 145.935-145.965
DX 1 29 Mar 12:49:59 12:53:06 19° 93° (E) 12:56:12 434.975-435.025
50 SAT 29 Mar 12:50:01 12:53:00 26° 96° (E) 12:56:00 437.505
NO-84 29 Mar 12:57:43 13:00:49 90° 98° (E) 13:04:10 435.350 FM
POLYITAN 1 29 Mar 13:00:28 13:02:59 15° 269° (W) 13:05:30 437.675
Gurwin Techsat 1B 29 Mar 13:02:57 13:07:40 33° 66° (ENE) 13:12:25 435.225
RS-15 29 Mar 13:03:32 13:15:36 89° 123° (ESE) 13:28:05 29.354- 29.394
QB50P2 29 Mar 13:06:03 13:07:52 12° 270° (W) 13:09:41 145.880/145.840
DUCHIFAT 1 29 Mar 13:12:55 13:15:01 13° 270° (W) 13:17:07 145.980
BUGSAT 1 29 Mar 13:13:52 13:17:45 34° 263° (W) 13:21:39 437.445
VELOX 1 29 Mar 13:22:27 13:26:56 82° 287° (WNW) 13:31:24 145.980
UKube-1 29 Mar 13:23:05 13:26:53 29° 96° (E) 13:30:39 .
SPROUT 29 Mar 13:42:51 13:47:02 53° 287° (WNW) 13:51:11 437.525
AO-7 29 Mar 13:55:03 14:01:59 31° 55° (NE) 14:08:53 .
Oscar 19 29 Mar 14:02:20 14:07:11 43° 261° (W) 14:12:05 437.125/150
ESTCUBE 1 29 Mar 14:02:35 14:04:22 12° 300° (WNW) 14:06:10 437.505/2401.250
ITAMSAT 1 29 Mar 14:17:34 14:21:59 29° 65° (ENE) 14:26:25 435.822/435.867
50 SAT 29 Mar 14:23:18 14:25:54 20° 292° (WNW) 14:28:31 437.505
DX 1 29 Mar 14:25:18 14:29:28 43° 290° (WNW) 14:33:37 434.975-435.025
SO-50 29 Mar 14:25:28 14:30:06 75° 121° (ESE) 14:34:41 436.795
BEESAT 29 Mar 14:42:35 14:45:39 17° 92° (E) 14:48:43 436.000
Gurwin Techsat 1B 29 Mar 14:42:47 14:47:34 34° 264° (W) 14:52:23 435.225
UKube-1 29 Mar 14:59:10 15:02:49 27° 293° (WNW) 15:06:28 .
ITUPSAT 1 29 Mar 15:00:24 15:04:18 25° 95° (E) 15:08:11 437.325
RS-15 29 Mar 15:18:48 15:29:54 38° 330° (NNW) 15:41:10 29.354- 29.394
O/OREOS (USA 219) 29 Mar 15:20:14 15:21:56 12° 97° (E) 15:23:36 437.305
AO-7 29 Mar 15:45:51 15:54:08 69° 254° (WSW) 16:02:26 .
ITAMSAT 1 29 Mar 15:56:24 16:01:17 39° 262° (W) 16:06:11 435.822/435.867
MOZHAYETS 4 29 Mar 16:06:44 16:11:11 51° 100° (E) 16:15:37
SO-50 29 Mar 16:07:47 16:11:03 19° 321° (NW) 16:14:20 436.795
PCSat 29 Mar 16:10:40 16:13:00 13° 33° (NNE) 16:15:19 145.827
BEESAT 29 Mar 16:19:07 16:23:46 55° 288° (WNW) 16:28:23 436.000
CUTE-I 29 Mar 16:33:49 16:35:51 12° 56° (NE) 16:37:55 437.470
ITUPSAT 1 29 Mar 16:37:50 16:42:13 37° 291° (WNW) 16:46:34 437.325
YUBILEINY 29 Mar 16:52:11 16:57:42 18° 58° (ENE) 17:03:12 435.215
LilacSat-2 29 Mar 16:52:47 16:54:03 11° 63° (ENE) 16:55:19 437.200
O/OREOS (USA 219) 29 Mar 16:56:09 17:00:40 71° 294° (WNW) 17:05:15 437.305
KKS-1 29 Mar 17:00:36 17:04:49 39° 98° (E) 17:09:00 437.445
NUDT-PHONESAT 29 Mar 17:01:13 17:02:00 11° 63° (ENE) 17:02:45 437.300
CUBESAT XI-V 29 Mar 17:07:53 17:12:14 38° 97° (E) 17:16:35 437.345
KAITUO 1B 29 Mar 17:11:31 17:13:31 14° 65° (ENE) 17:15:32 145.475/437.950
XW-2D 29 Mar 17:11:51 17:14:29 18° 67° (ENE) 17:17:08 145.860 - 145.880
XW-2B 29 Mar 17:17:39 17:20:30 20° 67° (ENE) 17:23:20 145.730 - 145.750
DOVE 4 29 Mar 17:20:08 17:24:32 37° 69° (ENE) 17:29:11 437.250
STARS 29 Mar 17:27:25 17:31:26 33° 97° (E) 17:35:25 437.465
XW-2C 29 Mar 17:27:34 17:30:46 26° 70° (ENE) 17:33:59 145.795 - 145.815
RS-15 29 Mar 17:37:14 17:47:15 27° 4° (N) 17:57:10 29.354- 29.394
MOZHAYETS 4 29 Mar 17:44:55 17:47:57 18° 297° (WNW) 17:50:59
AO-7 29 Mar 17:44:59 17:48:21 13° 274° (W) 17:51:45 .
PCSat 29 Mar 17:52:20 17:57:40 54° 54° (NE) 18:02:58 145.827
HO-68 29 Mar 18:06:32 18:12:20 28° 58° (ENE) 18:18:08 435.675
CUTE-I 29 Mar 18:09:39 18:15:01 78° 74° (ENE) 18:20:25 437.470
XW-2F 29 Mar 18:16:23 18:20:11 82° 258° (WSW) 18:23:58 145.980 - 146.000
M-CUBED/EXP-1 PRIME 29 Mar 18:16:50 18:19:02 13° 94° (E) 18:21:13 437.505
LilacSat-2 29 Mar 18:24:03 18:27:50 60° 259° (W) 18:31:37 437.200
NUDT-PHONESAT 29 Mar 18:31:41 18:35:23 63° 259° (WSW) 18:39:07 437.300
KKS-1 29 Mar 18:37:41 18:41:08 22° 295° (WNW) 18:44:34 437.445
O/OREOS (USA 219) 29 Mar 18:40:23 18:40:58 10° 315° (NW) 18:41:33 437.305
KAITUO 1B 29 Mar 18:43:36 18:47:11 44° 261° (W) 18:50:47 145.475/437.950
ISS 29 Mar 18:43:38 18:44:29 11° 130° (SE) 18:45:21 437.550
XW-2D 29 Mar 18:44:59 18:48:28 33° 263° (W) 18:51:56 145.860 - 145.880
CUBESAT XI-V 29 Mar 18:45:41 18:49:24 24° 294° (WNW) 18:53:06 437.345
YUBILEINY 29 Mar 18:47:18 18:56:03 80° 81° (E) 19:04:48 435.215
SEEDS 29 Mar 18:47:33 18:50:29 19° 65° (ENE) 18:53:26 437.485
XW-2B 29 Mar 18:51:10 18:54:31 29° 264° (W) 18:57:53 145.730 - 145.750
DOVE 4 29 Mar 18:58:16 19:02:17 27° 267° (W) 19:06:32 437.250
CUTE 1.7 + AOD 2 29 Mar 18:59:56 19:03:49 38° 71° (ENE) 19:07:43 437.475
XW-2C 29 Mar 19:01:55 19:04:57 22° 266° (W) 19:07:58 145.795 - 145.815
STARS 29 Mar 19:04:01 19:07:38 25° 294° (WNW) 19:11:13 437.465
ZACube-1 29 Mar 19:13:43 19:14:38 11° 60° (ENE) 19:15:32 437.345
CUBEBUG 2 29 Mar 19:18:07 19:22:17 31° 69° (ENE) 19:26:25 437.445
XW-2A 29 Mar 19:22:28 19:25:55 90° 250° (WSW) 19:29:23 145.665 - 145.685
STRAND 1 29 Mar 19:22:49 19:26:51 23° 93° (E) 19:30:51 437.568
PCSat 29 Mar 19:36:28 19:40:41 23° 253° (WSW) 19:44:53 145.827
AO-73 29 Mar 19:37:49 19:40:43 17° 64° (ENE) 19:43:35 145.935
M-CUBED/EXP-1 PRIME 29 Mar 19:49:13 19:53:54 75° 290° (WNW) 19:58:33 437.505
RS-15 29 Mar 19:52:15 20:04:01 46° 38° (NE) 20:15:20 29.354- 29.394
HO-68 29 Mar 19:52:27 19:59:32 65° 257° (WSW) 20:06:39 435.675
CUTE-I 29 Mar 19:52:53 19:55:39 14° 271° (W) 19:58:26 437.470
AAUSAT CUBESAT 2 29 Mar 19:55:43 19:59:40 49° 73° (ENE) 20:03:39 437.432
Tancredo 1 29 Mar 20:01:16 20:04:23 68° 145° (SE) 20:07:33 437.200
AO-85 29 Mar 20:07:11 20:11:26 46° 119° (ESE) 20:15:24 145.980
UWE-3 29 Mar 20:12:51 20:17:28 70° 75° (ENE) 20:22:02 435.000/436.395/437.385
ISS 29 Mar 20:17:12 20:20:27 84° 151° (SSE) 20:23:44 437.550
SEEDS 29 Mar 20:22:00 20:25:54 39° 262° (W) 20:29:49 437.485
Oscar 11 29 Mar 20:32:02 20:36:11 49° 72° (ENE) 20:40:22 .
CUTE 1.7 + AOD 2 29 Mar 20:36:46 20:39:47 19° 267° (W) 20:42:49 437.475
DELFI C3 29 Mar 20:44:41 20:47:34 20° 67° (ENE) 20:50:27 145.870
YUBILEINY 29 Mar 20:45:38 20:51:48 22° 281° (WNW) 20:57:59 435.215
ZACube-1 29 Mar 20:45:41 20:50:14 90° 42° (NE) 20:54:42 437.345
CUBEBUG 2 29 Mar 20:54:43 20:58:51 29° 265° (W) 21:02:58 437.445
STRAND 1 29 Mar 21:01:22 21:06:14 45° 291° (WNW) 21:11:03 437.568
AO-73 29 Mar 21:12:09 21:16:34 52° 261° (W) 21:20:54 145.935
SO-50 29 Mar 21:16:21 21:19:09 16° 36° (NE) 21:21:56 436.795
M-CUBED/EXP-1 PRIME 29 Mar 21:26:18 21:27:31 11° 307° (NW) 21:28:44 437.505
AAUSAT CUBESAT 2 29 Mar 21:33:15 21:35:25 14° 269° (W) 21:37:37 437.432
Tancredo 1 29 Mar 21:38:00 21:40:45 26° 343° (NNW) 21:43:29 437.200
HO-68 29 Mar 21:48:10 21:48:35 10° 276° (W) 21:49:01 435.675
AO-85 29 Mar 21:48:38 21:52:00 22° 316° (NW) 21:55:14 145.980
UWE-3 29 Mar 21:52:18 21:54:21 13° 271° (W) 21:56:23 435.000/436.395/437.385
ISS 29 Mar 21:54:28 21:57:14 25° 345° (NNW) 22:00:01 437.550
BEESAT 3 29 Mar 21:58:51 22:02:45 75° 121° (ESE) 22:06:44 437.485
RS-15 29 Mar 22:05:13 22:17:20 69° 244° (WSW) 22:28:54 29.354- 29.394
Oscar 11 29 Mar 22:10:01 22:12:36 16° 269° (W) 22:15:12 .
DELFI C3 29 Mar 22:18:35 22:22:09 33° 263° (W) 22:25:44 145.870
BEESAT 2 29 Mar 22:22:38 22:26:29 52° 119° (ESE) 22:30:23 435.950
PRISM 29 Mar 22:32:54 22:37:06 79° 103° (ESE) 22:41:17 437.425
TIGRISAT 29 Mar 22:40:59 22:45:12 45° 98° (E) 22:49:18 435.000
LO-87 29 Mar 22:46:52 22:50:25 58° 74° (ENE) 22:54:00 145.935 - 145.965
VELOX 1 29 Mar 22:47:30 22:49:02 12° 59° (ENE) 22:50:34 145.980
UNISAT 6 29 Mar 22:52:12 22:56:35 65° 101° (ESE) 23:00:51 437.425
SO-50 29 Mar 22:55:44 23:00:16 89° 43° (NE) 23:04:46 436.795
SPROUT 29 Mar 23:03:23 23:05:37 14° 62° (ENE) 23:07:51 437.525
Tancredo 1 29 Mar 23:15:15 23:17:36 19° 4° (N) 23:19:56 437.200
AIST 2D 29 Mar 23:15:37 23:17:24 13° 91° (E) 23:19:12 435.315
FO-29 29 Mar 23:23:37 23:29:31 71° 102° (ESE) 23:34:49 435.910
ESTCUBE 1 29 Mar 23:23:59 23:28:26 82° 76° (ENE) 23:32:57 437.505/2401.250
50 SAT 29 Mar 23:25:53 23:27:31 13° 65° (ENE) 23:29:11 437.505
ISS 29 Mar 23:31:58 23:34:28 20° 5° (N) 23:37:00 437.550
BEESAT 3 29 Mar 23:38:27 23:40:50 15° 321° (NW) 23:43:15 437.485
DX 1 29 Mar 23:46:43 23:49:52 20° 64° (ENE) 23:53:02 434.975-435.025
BEESAT 2 30 Mar 00:01:37 00:04:32 19° 318° (NW) 00:07:30 435.950
NANOSAT C BR1 30 Mar 00:05:57 00:09:40 29° 96° (E) 00:13:20 145.865
PRISM 30 Mar 00:10:42 00:11:46 11° 300° (WNW) 00:12:50 437.425
EO-79 30 Mar 00:12:45 00:16:43 38° 98° (E) 00:20:38 145.935-145.965
TIGRISAT 30 Mar 00:18:32 00:21:33 18° 296° (WNW) 00:24:30 435.000
UKube-1 30 Mar 00:18:34 00:22:17 29° 68° (ENE) 00:26:01 .
VELOX 1 30 Mar 00:20:24 00:24:49 81° 257° (WSW) 00:29:17 145.980
RS-15 30 Mar 00:21:05 00:27:15 16° 266° (W) 00:33:19 29.354- 29.394
UNISAT 6 30 Mar 00:30:34 00:32:44 14° 299° (WNW) 00:34:52 437.425
SPROUT 30 Mar 00:36:46 00:41:01 62° 259° (WSW) 00:45:19 437.525
SO-50 30 Mar 00:39:21 00:39:59 10° 253° (WSW) 00:40:37 436.795
